This is the latest recevied weather packets stored in our database for station/object NW5W-12. If no packets are shown the sender has not sent any weather packets the latest 10 day(s).
| Time | Temp. | Humidity | Pressure | Rain* | Wind** | Luminosity | Snow |
|---|---|---|---|---|---|---|---|
| 1777616331 | 4.44° C | 40% | 1018.7 hPa | 0 mm | - | - | - |
| 1777616031 | 4.44° C | 39% | 1018.7 hPa | 0 mm | - | - | - |
| 1777615731 | 4.44° C | 39% | 1018.7 hPa | 0 mm | - | - | - |
| 1777615431 | 4.44° C | 40% | 1018.6 hPa | 0 mm | - | - | - |
| 1777615131 | 5° C | 39% | 1018.6 hPa | 0 mm | - | - | - |
| 1777614831 | 5° C | 40% | 1018.7 hPa | 0 mm | - | - | - |
| 1777614531 | 5° C | 39% | 1018.6 hPa | 0 mm | - | - | - |
| 1777614231 | 5° C | 40% | 1018.7 hPa | 0 mm | - | - | - |
| 1777613631 | 5.56° C | 41% | 1018.7 hPa | 0 mm | - | - | - |
| 1777613331 | 5° C | 42% | 1018.7 hPa | 0 mm | - | - | - |
| 1777613030 | 5° C | 42% | 1018.7 hPa | 0 mm | - | - | - |
| 1777612730 | 5° C | 43% | 1018.7 hPa | 0 mm | - | - | - |
| 1777612431 | 5.56° C | 45% | 1018.7 hPa | 0 mm | - | - | - |
| 1777612131 | 6.11° C | 44% | 1018.6 hPa | 0 mm | - | - | - |
| 1777611831 | 6.11° C | 40% | 1018.6 hPa | 0 mm | - | - | - |
| 1777611531 | 6.67° C | 40% | 1018.6 hPa | 0 mm | - | - | - |
| 1777611231 | 7.22° C | 39% | 1018.6 hPa | 0 mm | - | - | - |
| 1777610931 | 7.22° C | 38% | 1018.6 hPa | 0 mm | - | - | - |
| 1777610631 | 7.78° C | 38% | 1018.6 hPa | 0 mm | - | - | - |
| 1777610331 | 7.78° C | 37% | 1018.5 hPa | 0 mm | - | - | - |
| 1777610031 | 7.78° C | 37% | 1018.5 hPa | 0 mm | - | - | - |
| 1777609731 | 7.78° C | 37% | 1018.4 hPa | 0 mm | - | - | - |
| 1777609431 | 7.78° C | 38% | 1018.4 hPa | 0 mm | - | - | - |
| 1777609131 | 7.78° C | 39% | 1018.4 hPa | 0 mm | - | - | - |
| 1777608831 | 7.22° C | 43% | 1018.4 hPa | 0 mm | - | - | - |
* Rain since midnight (hover to see other rain measurements)
** Current wind speed in m/s (hover to see current wind gust speed)